Weather History for Defiance, OH

Change the Weather History Date:

Saturday, May 10, 2014

  Actual Average Record
Temperature  
Mean Temperature 62 °F -  
Max Temperature 75 °F 68 °F 91 °F (1936)
Min Temperature 51 °F 44 °F 24 °F (1966)
Degree Days  
Heating Degree Days 3    
Growing Degree Days 12 (Base 50)    
Moisture  
Dew Point 44 °F    
Average Humidity 54    
Maximum Humidity 81    
Minimum Humidity 27    
Precipitation  
Precipitation 0.00 in - - ()
Sea Level Pressure  
Sea Level Pressure 29.94 in    
Wind  
Wind Speed 5 mph (West)    
Max Wind Speed 14 mph    
Max Gust Speed 21 mph    
Visibility 10 miles    
Events      
Averages and records for this station are not official NWS values.
T = Trace of Precipitation, MM = Missing Value Source: NWS Daily Summary

Daily Weather History Graph

Daily Weather History Graph

Search for Another Location

Airport:

Trip Planner

Search our weather history database for the weather conditions in past years. The results will help you decide how hot, cold, wet, or windy it might be!

Date:

Astronomy

May. 10, 2014 Rise Set
Actual Time 6:24 AM EDT 8:44 PM EDT
Civil Twilight 5:53 AM EDT 9:15 PM EDT
Nautical Twilight 5:15 AM EDT 9:54 PM EDT
Astronomical Twilight 4:32 AM EDT 10:36 PM EDT
Moon 4:36 PM EDT (5/10) 3:59 AM EDT (5/10)
Length of Visible Light 15h 22m
Length of Day
14h 20m
Waxing Gibbous, 82% of the Moon is Illuminated
May 10
Waxing Gibbous
May 14
Full
May 21
Last Quarter
May 28
New
Jun 5
First Quarter

Hourly Weather History & Observations

Time (EDT) Temp. Dew Point Humidity Pressure Visibility Wind Dir Wind Speed Gust Speed Precip Events Conditions
12:53 AM 60.1 °F 53.1 °F 78% 29.85 in 10.0 mi SW 6.9 mph - N/A   Clear
1:53 AM 59.0 °F 53.1 °F 81% 29.88 in 10.0 mi WSW 4.6 mph - N/A   Scattered Clouds
2:53 AM 59.0 °F 53.1 °F 81% 29.88 in 10.0 mi WNW 3.5 mph - N/A   Clear
3:53 AM 57.0 °F 46.9 °F 69% 29.90 in 10.0 mi WNW 5.8 mph - N/A   Clear
4:53 AM 54.0 °F 46.0 °F 75% 29.91 in 10.0 mi SW 3.5 mph - N/A   Clear
5:53 AM 51.1 °F 45.0 °F 80% 29.93 in 10.0 mi SW 3.5 mph - N/A   Clear
7:53 AM 53.1 °F 46.0 °F 77% 29.97 in 10.0 mi Calm Calm - N/A   Clear
8:53 AM 55.0 °F 46.9 °F 74% 29.98 in 10.0 mi Calm Calm - N/A   Clear
9:53 AM 61.0 °F 46.0 °F 58% 29.99 in 10.0 mi WNW 4.6 mph - N/A   Clear
10:53 AM 64.0 °F 46.0 °F 52% 29.97 in 10.0 mi Variable 4.6 mph - N/A   Clear
11:53 AM 64.9 °F 45.0 °F 48% 29.97 in 10.0 mi Calm Calm - N/A   Clear
12:53 PM 69.1 °F 39.0 °F 33% 29.96 in 10.0 mi WSW 8.1 mph 17.3 mph N/A   Clear
1:53 PM 71.1 °F 37.9 °F 30% 29.93 in 10.0 mi WSW 8.1 mph - N/A   Clear
2:53 PM 73.9 °F 39.0 °F 28% 29.93 in 10.0 mi West 10.4 mph - N/A   Clear
3:53 PM 73.9 °F 37.9 °F 27% 29.92 in 10.0 mi NW 13.8 mph 19.6 mph N/A   Clear
5:53 PM 73.0 °F 41.0 °F 31% 29.92 in 10.0 mi Variable 6.9 mph 20.7 mph N/A   Clear
6:53 PM 73.0 °F 39.0 °F 29% 29.92 in 10.0 mi NW 10.4 mph - N/A   Clear
7:53 PM 70.0 °F 39.0 °F 32% 29.94 in 10.0 mi WNW 8.1 mph - N/A   Clear
8:53 PM 66.0 °F 35.1 °F 32% 29.96 in 10.0 mi NW 5.8 mph - N/A   Clear
11:53 PM 53.1 °F 39.0 °F 59% 30.00 in 10.0 mi North 3.5 mph - N/A   Clear